Regional Weather Roundup
Issued by NWS

Home | Current Version | Previous Version | Graphics & Text | Print | Product List | Glossary On
Versions: 1 2 3 4 5 6 7 8 9 10 11 12 13 14 15 16 17 18 19 20 21 22 23 24 25 26 27 28 29 30 31 32 33 34 35 36 37 38 39 40 41 42 43 44 45 46 47 48 49 50
000
ASUS45 KBOU 171407
RWRCO

WEATHER ROUNDUP FOR COLORADO
NATIONAL WEATHER SERVICE DENVER/BOULDER CO
700 AM MST WED DEC 17 2014

NOTE: "FAIR" INDICATES FEW OR NO CLOUDS BELOW 12000 FEET WITH NO
SIGNIFICANT WEATHER AND/OR OBSTRUCTIONS TO VISIBILITY.

COZ001>005-013-030-031-171500-
...NORTHWEST COLORADO...

CITY           SKY/WX    TMP DP  RH WIND       PRES   REMARKS
CRAIG            N/A     14  13  95 MISG      30.01S
HAYDEN         MOCLDY    25  19  80 E9        29.99F WCI  15
MEEKER         LGT SNOW  27  25  92 CALM      30.00F FOG
MOUNT WERNER   NOT AVBL
STEAMBOAT SPGS CLOUDY    22  21  95 CALM      30.00S
WALDEN           N/A     10   7  85 CALM      29.98R VSB 3/4
$$

COZ006>008-011-171500-
...WEST CENTRAL VALLEYS...

CITY           SKY/WX    TMP DP  RH WIND       PRES   REMARKS
GRAND JUNCTION CLOUDY    31  28  89 CALM      30.02S
MONTROSE       CLOUDY    31  26  82 SW3       30.03S
EAGLE          CLOUDY    18  16  93 CALM      30.08S
RIFLE          LGT SNOW  28  26  92 CALM      30.03S FOG
DELTA          LGT RAIN  33  32  97 CALM      30.03S
NUCLA          CLOUDY    32  28  86 CALM      30.03S
$$

COZ017>023-064>068-171500-
...SOUTHWEST COLORADO...

CITY           SKY/WX    TMP DP  RH WIND       PRES   REMARKS
DURANGO        CLOUDY    29  26  89 N5        29.98S WCI  24
CORTEZ         MOCLDY    30  26  85 CALM      29.98R
PAGOSA SPRINGS CLOUDY    27  24  89 S5        29.99S WCI  22
TELLURIDE      CLOUDY    28  22  77 E3        30.00S
WOLF CREEK PAS CLOUDY    18  10  73 MISG      30.02S
$$

COZ009-010-012-014-032>034-037-058>063-171500-
...CENTRAL COLORADO...

CITY           SKY/WX    TMP DP  RH WIND       PRES   REMARKS
ASPEN          MOCLDY    19  16  88 S3        29.99S
BUENA VISTA    PTCLDY    17  11  80 W3        30.03R
COPPER MTN     MOCLDY    23  14  68 S7        30.01S WCI  15
BERTHOUD PASS  LGT SNOW  12   7  79 MISG      30.02S
COTTONWOOD PAS PTCLDY    28  16  59 CALM      30.02R
GUNNISON       MOCLDY    12   9  85 CALM      30.07F
KREMMLING      LGT SNOW N/A N/A N/A CALM      30.07R
LEADVILLE      MOCLDY    12   7  80 CALM      29.99S
MONARCH PASS   CLOUDY    16  12  86 MISG      30.11S
SALIDA         CLOUDY    25  15  68 NW7       30.10S WCI  17
SUNLIGHT       FLURRIES  23  21  93 CALM      30.02S
WILKERSON PASS CLOUDY    21  14  73 W5        30.04S WCI  15
$$

COZ069>075-171500-
...SAN LUIS VALLEY/SANGRE DE CRISTO MOUNTAINS...

CITY           SKY/WX    TMP DP  RH WIND       PRES   REMARKS
ALAMOSA        CLOUDY    17  12  80 W3        30.02R
LA VETA PASS   MOCLDY    23  12  63 S10       30.01S WCI  12
SAGUACHE       CLOUDY    23  12  63 NW10      30.03S WCI  12
$$

COZ035-036-038>040-171500-
...NORTHERN COLORADO FRONT RANGE...

CITY           SKY/WX    TMP DP  RH WIND       PRES   REMARKS
DENVER INTL AP CLOUDY    22  17  81 SE5       29.97S WCI  16
DMNS CITY PARK   N/A     22  18  83 N1        29.98R
AURORA         MOCLDY    25  17  70 VRB1      29.97R
FRONT RANGE AP CLOUDY    25  21  86 S5        29.97S WCI  19
ERIE MUNI ARPT   N/A     18  17  94 MISG      29.99S
BOULDER MUN AP MOCLDY    23  23 100 CALM      29.97S
CENTENNIAL     CLOUDY    27  19  72 SE3       29.95S
BROOMFIELD     MOCLDY    25  21  86 CALM      29.97R
FORT COLLINS   CLOUDY    19  16  86 CALM      30.00S
LONGMONT       CLOUDY    22  19  90 CALM      30.01R
$$

COZ041-046-047-076>085-087-088-171500-
...PIKES PEAK/PALMER DIVIDE AND SOUTHERN FOOTHILLS...

CITY           SKY/WX    TMP DP  RH WIND       PRES   REMARKS
COLO. SPRINGS  CLOUDY    28  18  66 N5        29.96S WCI  23
A. F. ACADEMY  CLOUDY    27  18  67 N6        29.95S WCI  21
ELLICOTT       NOT AVBL
FALCON         CLOUDY    34  21  59 N6        29.96F WCI  29
FORT CARSON    CLOUDY    24  19  80 N5        29.94S WCI  18
LIMON          CLOUDY    15  13  91 NW6       29.97S WCI   6
MONUMENT HILL  CLOUDY    27  18  69 CALM      29.95S
TRINIDAD       CLOUDY    27  20  75 CALM      29.96S
$$

COZ042>045-048>051-090-091-171500-
...NORTHEAST COLORADO...

CITY           SKY/WX    TMP DP  RH WIND       PRES   REMARKS
GREELEY ARPT   CLOUDY    18  10  73 CALM      30.00R
AKRON          FOG       17  16  95 SE13      30.01R VSB 1/2 WCI   4
BURLINGTON     FOG       22  20  92 SE8       30.04R VSB 3/4 WCI  12
WRAY           CLOUDY    23  23 100 E8        30.08F FOG     WCI  14
STERLING       CLOUDY    23  21  93 CALM      30.04R FOG
HOLYOKE        NOT AVBL
FORT MORGAN    MOCLDY    10   8  89 N6        30.02R WCI   1
$$

COZ086-089-092>099-171500-
...SOUTHEAST COLORADO...

CITY           SKY/WX    TMP DP  RH WIND       PRES   REMARKS
PUEBLO         NOT AVBL
LA JUNTA       CLOUDY    25  21  85 NE6       30.01S WCI  18
LAMAR          CLOUDY    25  23  92 N7        30.01R WCI  17
SPRINGFIELD      N/A     23  21  92 NW7       29.98S WCI  15
$$


USA.gov is the U.S. government's official web portal to all federal, state and local government web resources and services.